When you browse on this site, cookies collect data to enhance your experience and personalize the content and advertising you see.
Visit our Privacy Policy to learn more. By continuing to use the site, you agree to this use of cookies and data.
  • In Österreich
  • Länderverzeichnis
  • Für 7 Tage
  • Wassertemperatur
  • Satellitenkarten
  • Wetterkarte
  • News
  • Widgets
  • user-avatar
    Anmelden

    Stündliche Wetter Canberra

    Heute, 20 Juli, Samstag

    Zeit Temperatur Niederschläge Wind Luftdruck Luftfeuchtigkeit
    00:00 +2°C° 0 mm 0 m/S 712 mmHg 93%
    01:00 +1°C° 0 mm 0 m/S 712 mmHg 93%
    02:00 +1°C° 0 mm 0 m/S 712 mmHg 93%
    03:00 +1°C° 0 mm 0 m/S 712 mmHg 93%
    04:00 +1°C° 0 mm 0 m/S 712 mmHg 91%
    05:00 +1°C° 0 mm 0 m/S 712 mmHg 91%
    06:00 +2°C° 0 mm 1 m/S 712 mmHg 91%
    07:00 +1°C° 0 mm 1 m/S 712 mmHg 91%
    08:00 +3°C° 0 mm 1 m/S 712 mmHg 84%
    09:00 +5°C° 0 mm 1 m/S 712 mmHg 78%
    10:00 +7°C° 0 mm 1 m/S 712 mmHg 68%
    11:00 +8°C° 0 mm 2 m/S 712 mmHg 62%
    12:00 +10°C° 0 mm 2 m/S 711 mmHg 56%
    13:00 +12°C° 0 mm 3 m/S 711 mmHg 50%
    14:00 +12°C° 0 mm 3 m/S 710 mmHg 54%
    15:00 +11°C° 0 mm 3 m/S 710 mmHg 59%
    16:00 +11°C° 0 mm 3 m/S 710 mmHg 62%
    17:00 +9°C° 0 mm 2 m/S 710 mmHg 72%
    18:00 +6°C° 0 mm 2 m/S 710 mmHg 81%
    19:00 +5°C° 0 mm 1 m/S 710 mmHg 90%
    20:00 +5°C° 0 mm 1 m/S 710 mmHg 90%
    21:00 +5°C° 0 mm 1 m/S 710 mmHg 90%
    22:00 +4°C° 0 mm 1 m/S 710 mmHg 89%
    23:00 +4°C° 0 mm 1 m/S 710 mmHg 90%

    Morgen, 21 Juli, Sonntag

    Zeit Temperatur Niederschläge Wind Luftdruck Luftfeuchtigkeit
    00:00 +3°C° 0 mm 2 m/S 709 mmHg 90%
    01:00 +3°C° 0 mm 2 m/S 709 mmHg 90%
    02:00 +3°C° 0 mm 2 m/S 709 mmHg 90%
    03:00 +3°C° 0 mm 2 m/S 709 mmHg 91%
    04:00 +2°C° 0 mm 2 m/S 708 mmHg 91%
    05:00 +2°C° 0 mm 2 m/S 708 mmHg 92%
    06:00 +2°C° 0 mm 2 m/S 708 mmHg 93%
    07:00 +2°C° 0 mm 2 m/S 708 mmHg 94%
    08:00 +3°C° 0 mm 3 m/S 708 mmHg 85%
    09:00 +6°C° 0 mm 4 m/S 708 mmHg 76%
    10:00 +8°C° 0 mm 5 m/S 708 mmHg 67%
    11:00 +10°C° 0 mm 5 m/S 708 mmHg 61%
    12:00 +11°C° 0 mm 6 m/S 707 mmHg 55%
    13:00 +13°C° 0 mm 6 m/S 707 mmHg 49%
    14:00 +13°C° 0 mm 6 m/S 707 mmHg 52%
    15:00 +12°C° 0 mm 5 m/S 706 mmHg 55%
    16:00 +12°C° 0 mm 5 m/S 706 mmHg 58%
    17:00 +10°C° 0 mm 4 m/S 707 mmHg 66%
    18:00 +8°C° 0 mm 3 m/S 707 mmHg 75%
    19:00 +7°C° 0 mm 3 m/S 707 mmHg 84%
    20:00 +6°C° 0 mm 2 m/S 707 mmHg 84%
    21:00 +6°C° 0 mm 2 m/S 708 mmHg 85%
    22:00 +6°C° 0 mm 2 m/S 708 mmHg 86%
    23:00 +5°C° 0 mm 2 m/S 708 mmHg 87%

    übermorgen, 22 Juli, Montag

    Zeit Temperatur Niederschläge Wind Luftdruck Luftfeuchtigkeit
    00:00 +6°C° 0 mm 1 m/S 708 mmHg 88%
    01:00 +5°C° 0 mm 1 m/S 708 mmHg 89%
    02:00 +5°C° 0 mm 1 m/S 708 mmHg 90%
    03:00 +4°C° 0 mm 1 m/S 708 mmHg 91%
    04:00 +3°C° 0 mm 0 m/S 708 mmHg 92%
    05:00 +3°C° 0 mm 0 m/S 708 mmHg 92%
    06:00 +2°C° 0 mm 0 m/S 708 mmHg 93%
    07:00 +2°C° 0 mm 0 m/S 709 mmHg 93%
    08:00 +6°C° 0 mm 1 m/S 709 mmHg 85%
    09:00 +8°C° 0 mm 1 m/S 709 mmHg 77%
    10:00 +10°C° 0 mm 1 m/S 709 mmHg 69%
    11:00 +12°C° 0 mm 2 m/S 709 mmHg 63%
    12:00 +12°C° 0 mm 3 m/S 708 mmHg 57%
    13:00 +13°C° 0 mm 4 m/S 708 mmHg 52%
    14:00 +13°C° 0 mm 4 m/S 707 mmHg 54%
    15:00 +13°C° 0 mm 4 m/S 707 mmHg 56%
    16:00 +12°C° 0 mm 4 m/S 707 mmHg 58%
    17:00 +10°C° 0 mm 3 m/S 707 mmHg 68%
    18:00 +8°C° 0 mm 3 m/S 707 mmHg 77%
    19:00 +6°C° 0 mm 2 m/S 707 mmHg 87%
    20:00 +6°C° 0 mm 2 m/S 707 mmHg 88%
    21:00 +5°C° 0 mm 2 m/S 707 mmHg 89%
    22:00 +5°C° 0 mm 2 m/S 707 mmHg 90%
    23:00 +5°C° 0 mm 2 m/S 707 mmHg 90%

    23 Juli, Dienstag

    Zeit Temperatur Niederschläge Wind Luftdruck Luftfeuchtigkeit
    00:00 +4°C° 0 mm 2 m/S 707 mmHg 90%
    01:00 +3°C° 0 mm 3 m/S 707 mmHg 90%
    02:00 +3°C° 0 mm 3 m/S 707 mmHg 90%
    03:00 +3°C° 0 mm 3 m/S 706 mmHg 89%
    04:00 +3°C° 0 mm 4 m/S 706 mmHg 89%
    05:00 +3°C° 0 mm 4 m/S 707 mmHg 86%
    06:00 +3°C° 0 mm 4 m/S 707 mmHg 83%
    07:00 +2°C° 0 mm 5 m/S 707 mmHg 81%
    08:00 +4°C° 0 mm 6 m/S 708 mmHg 74%
    09:00 +7°C° 0 mm 6 m/S 708 mmHg 67%
    10:00 +9°C° 0 mm 7 m/S 708 mmHg 60%
    11:00 +10°C° 0 mm 7 m/S 708 mmHg 58%
    12:00 +10°C° 0 mm 8 m/S 708 mmHg 56%
    13:00 +11°C° 0 mm 8 m/S 707 mmHg 55%
    14:00 +10°C° 0 mm 8 m/S 707 mmHg 58%
    15:00 +10°C° 0 mm 7 m/S 707 mmHg 61%
    16:00 +9°C° 0 mm 7 m/S 707 mmHg 65%
    17:00 +8°C° 0 mm 7 m/S 707 mmHg 69%
    18:00 +7°C° 0 mm 6 m/S 708 mmHg 74%
    19:00 +5°C° 0 mm 6 m/S 708 mmHg 79%
    20:00 +5°C° 0 mm 6 m/S 708 mmHg 77%
    21:00 +5°C° 0 mm 7 m/S 708 mmHg 76%
    22:00 +5°C° 0 mm 7 m/S 708 mmHg 74%
    23:00 +5°C° 0 mm 7 m/S 708 mmHg 74%

    24 Juli, Mittwoch

    Zeit Temperatur Niederschläge Wind Luftdruck Luftfeuchtigkeit
    00:00 +5°C° 0 mm 8 m/S 707 mmHg 74%
    01:00 +5°C° 0 mm 8 m/S 707 mmHg 74%
    02:00 +4°C° 0 mm 8 m/S 707 mmHg 77%
    03:00 +4°C° 0 mm 8 m/S 707 mmHg 79%
    04:00 +4°C° 0 mm 8 m/S 707 mmHg 81%
    05:00 +4°C° 0 mm 7 m/S 707 mmHg 82%
    06:00 +4°C° 0 mm 6 m/S 708 mmHg 82%
    07:00 +4°C° 0 mm 6 m/S 708 mmHg 82%
    08:00 +5°C° 0 mm 6 m/S 709 mmHg 75%
    09:00 +7°C° 0 mm 6 m/S 709 mmHg 68%
    10:00 +8°C° 0 mm 6 m/S 710 mmHg 62%
    11:00 +8°C° 0 mm 6 m/S 710 mmHg 57%
    12:00 +9°C° 0 mm 5 m/S 710 mmHg 53%
    13:00 +10°C° 0 mm 5 m/S 710 mmHg 49%
    14:00 +9°C° 0 mm 5 m/S 710 mmHg 50%
    15:00 +10°C° 0 mm 4 m/S 710 mmHg 52%
    16:00 +8°C° 0 mm 4 m/S 710 mmHg 53%
    17:00 +6°C° 0 mm 4 m/S 710 mmHg 63%
    18:00 +4°C° 0 mm 3 m/S 711 mmHg 72%
    19:00 +4°C° 0 mm 2 m/S 712 mmHg 81%
    20:00 +3°C° 0 mm 2 m/S 712 mmHg 85%
    21:00 +3°C° 0 mm 1 m/S 712 mmHg 88%
    22:00 +1°C° 0 mm 0 m/S 713 mmHg 91%
    23:00 +1°C° 0 mm 0 m/S 712 mmHg 91%

    25 Juli, Donnerstag

    Zeit Temperatur Niederschläge Wind Luftdruck Luftfeuchtigkeit
    00:00 +1°C° 0 mm 0 m/S 712 mmHg 91%
    01:00 +1°C° 0 mm 0 m/S 712 mmHg 91%
    02:00 0°C° 0 mm 0 m/S 712 mmHg 91%
    03:00 0°C° 0 mm 0 m/S 712 mmHg 91%
    04:00 0°C° 0 mm 0 m/S 712 mmHg 92%
    05:00 -1°C° 0 mm 0 m/S 712 mmHg 92%
    06:00 -1°C° 0 mm 0 m/S 712 mmHg 93%
    07:00 -1°C° 0 mm 0 m/S 713 mmHg 94%
    08:00 +2°C° 0 mm 1 m/S 713 mmHg 85%
    09:00 +4°C° 0 mm 1 m/S 713 mmHg 77%
    10:00 +6°C° 0 mm 1 m/S 713 mmHg 69%
    11:00 +7°C° 0 mm 2 m/S 713 mmHg 64%
    12:00 +9°C° 0 mm 2 m/S 712 mmHg 59%
    13:00 +10°C° 0 mm 2 m/S 711 mmHg 53%
    14:00 +10°C° 0 mm 3 m/S 711 mmHg 57%
    15:00 +10°C° 0 mm 3 m/S 711 mmHg 61%
    16:00 +10°C° 0 mm 3 m/S 711 mmHg 64%
    17:00 +8°C° 0 mm 3 m/S 711 mmHg 74%
    18:00 +5°C° 0 mm 3 m/S 711 mmHg 84%
    19:00 +3°C° 0 mm 3 m/S 711 mmHg 94%
    20:00 +3°C° 0 mm 2 m/S 712 mmHg 94%
    21:00 +2°C° 0 mm 2 m/S 712 mmHg 95%
    22:00 +2°C° 0 mm 2 m/S 712 mmHg 95%
    23:00 +1°C° 0 mm 2 m/S 711 mmHg 95%
    Mehr zeigen